Dewpoint
59 54 50 50 53 51 51 50 49 50 52 50 50 52 52 56 57 55 55 55 56 57 57 59 59 60 61 65 68 69 70 72 70 69 68 67 67 67 68 68 70 70 70 69
52 50 50 52 52 51 51 50 48 50 52 50 50 50 51 54 56 57 57 56 56 56 57 58 59 60 60 62 66 69 71 72 71 69 70 68 67 68 68 68 70 71 71 71
51 50 50 51 51 51 49 49 48 46 51 52 51 47 48 53 56 57 57 57 57 57 58 59 60 60 59 61 64 68 71 72 72 72 69 70 69 69 68 68 68 70 72 72
52 52 50 49 49 50 44 50 49 48 47 42 49 40 49 47 51 55 57 58 57 57 58 59 61 62 61 59 61 66 70 71 71 73 71 71 67 66 67 68 68 70 72 71
48 49 50 48 46 50 45 44 48 49 46 44 46 42 44 47 46 47 49 55 56 57 58 58 58 60 62 61 60 62 68 70 71 72 71 70 69 68 68 68 72 73 72 71
50 51 48 46 46 50 45 42 43 44 45 40 39 43 39 41 45 44 47 49 52 55 58 59 60 62 63 62 60 61 67 71 70 71 72 72 72 70 68 70 68 68 68 69
46 43 45 48 43 40 35 36 31 32 32 31 36 43 42 44 42 47 47 48 50 54 56 58 61 62 63 63 61 61 66 69 69 70 70 72 72 72 71 71 68 69 68 68
44 34 40 44 42 41 36 32 29 28 22 25 41 39 36 44 41 43 47 50 53 53 54 56 58 62 63 64 65 63 64 67 68 68 70 72 73 69 70 70 70 68 67 68
42 37 38 41 30 39 36 34 30 26 26 24 28 36 34 42 44 46 48 49 50 49 55 58 60 62 65 65 66 66 66 67 67 67 69 71 72 72 70 71 71 68 70 69
44 38 32 22 25 28 32 31 26 27 26 24 23 28 24 38 37 45 47 47 50 51 57 60 61 62 64 66 69 69 69 70 70 70 70 70 71 71 71 71 71 70 70 71
43 40 24 25 24 24 29 28 25 23 22 25 23 22 36 35 37 40 41 47 49 52 57 59 60 63 66 67 69 70 70 71 71 72 72 72 71 71 71 70 70 70 70 71
39 31 25 22 23 20 25 28 26 28 30 25 25 25 26 36 42 44 39 43 47 51 59 61 62 65 67 68 70 70 71 71 71 70 70 70 70 71 71 70 70 70 70 70
37 34 23 24 21 22 22 28 27 25 26 32 28 27 32 37 38 40 44 44 49 55 61 63 66 66 67 68 69 69 70 70 69 68 68 68 68 69 69 70 70 69 69 68
40 24 28 22 29 25 26 24 29 29 29 28 27 30 33 34 37 37 40 48 53 59 62 63 65 66 67 68 69 69 69 69 69 68 68 68 67 68 69 70 69 69 67 66
27 30 29 27 27 20 23 25 27 30 31 29 28 28 30 35 39 40 47 54 57 60 62 63 63 64 66 66 67 68 69 69 69 68 68 67 68 68 70 68 68 65 65 66
30 35 32 30 29 27 27 28 31 32 32 32 31 32 33 37 40 47 52 56 59 60 61 62 63 64 65 66 67 67 68 69 69 68 68 67 67 67 69 67 64 64 64 65
34 38 37 32 32 31 29 30 30 31 31 30 28 32 37 41 45 47 50 57 58 59 61 62 63 64 65 66 68 67 68 69 69 68 67 67 67 67 68 67 65 65 65 65
40 40 38 31 34 28 29 37 33 32 34 36 38 42 43 44 45 47 51 54 57 58 59 59 61 64 66 65 66 68 67 68 68 68 67 66 66 66 67 67 65 65 66 65
33 37 36 33 31 32 32 34 35 39 38 40 41 45 46 50 51 49 53 55 56 56 57 59 62 62 65 64 66 67 67 67 67 67 66 66 66 65 67 67 66 66 66 65
36 41 35 36 32 29 35 36 41 41 38 41 43 44 47 50 43 43 52 55 57 58 58 58 57 57 59 62 64 65 66 67 67 67 67 66 66 65 64 65 66 66 67 67
38 40 36 36 34 34 37 39 43 35 39 44 43 48 50 50 51 52 51 51 54 56 58 59 58 56 59 63 65 66 66 67 68 68 67 66 66 65 65 66 65 64 64 65
38 40 38 39 38 33 38 36 34 41 45 44 47 48 50 51 54 54 54 52 52 54 54 55 57 59 62 64 66 66 67 69 68 68 67 66 66 65 63 66 65 65 65 64
39 40 40 41 39 44 39 41 42 44 44 45 47 47 49 50 50 51 52 54 54 54 56 56 57 59 61 63 65 65 68 68 68 68 67 67 66 66 65 64 63 64 64 63
43 42 40 40 41 38 40 41 43 44 45 47 48 47 47 48 50 50 53 54 54 55 55 55 58 59 60 62 63 64 66 68 67 68 67 66 66 65 64 63 62 61 63 63
39 41 38 39 40 45 41 44 45 46 49 50 49 48 48 50 52 52 54 57 57 58 58 59 60 61 61 63 64 63 65 68 65 68 66 66 65 63 64 63 63 62 63 61
43 43 40 37 47 46 46 47 48 50 50 50 51 52 54 55 55 55 56 57 58 57 58 59 59 60 60 62 63 66 66 67 67 66 63 63 64 64 62 61 62 58 55 54
Lifted_Index
-2 -2 -2 -1 -1 -1 -1 -1 -1 -1 -1 -1 -2 -2 -1 -1 -2 -2 -1 -1 -1 -1 -1 -1 -1 -1 -1 -1 -1 -2 -2 -2 -2 -1 -1 -1 -1 -1 -2 -2 -2 -3 -3 -3
-2 -2 -1 -1 -1 -1 -1 -2 -2 -1 -1 -1 -2 -2 -2 -2 -2 -2 -2 -1 -1 -1 -1 -1 -1 -1 -1 -1 -1 -1 -2 -2 -2 -1 -1 -1 -1 -1 -2 -2 -2 -3 -3 -3
-2 -2 -1 -1 -1 -2 -2 -2 -2 -2 -2 -2 -2 -2 -2 -2 -2 -2 -2 -2 -1 -1 -1 -1 -1 -1 -1 -0 -0 -1 -1 -1 -2 -2 -1 -1 -1 -1 -2 -2 -2 -3 -4 -4
-2 -2 -1 -1 -2 -2 -2 -2 -2 -2 -2 -1 -1 -2 -1 -1 -2 -2 -2 -2 -2 -1 -1 -1 -1 -1 -1 -1 -1 -1 -1 -1 -1 -2 -1 -1 -1 -1 -2 -2 -2 -3 -3 -4
-2 -1 -1 -1 -1 -2 -1 -1 -1 -1 -1 -1 -1 -1 -1 -1 -1 -2 -2 -2 -2 -2 -2 -2 -1 -1 -1 -1 -1 -1 -1 -1 -1 -1 -1 -1 -1 -1 -1 -2 -2 -3 -3 -3
-1 -1 -1 -1 -1 -1 -1 0 -0 -0 -1 -1 -0 -1 -1 -1 -1 -1 -2 -2 -2 -2 -2 -2 -2 -2 -1 -1 -1 -1 -1 -1 -1 -1 -1 -1 -1 -1 -1 -1 -1 -2 -3 -3
-0 0 0 -0 -1 -1 -0 0 0 0 0 0 0 -1 -1 -1 -0 -1 -1 -2 -2 -2 -2 -2 -2 -2 -2 -1 -1 -1 -1 -1 -1 -1 -1 -1 -1 -1 -1 -1 -1 -1 -2 -2
0 0 1 0 -0 -0 0 0 1 1 1 1 1 -0 -0 -0 -0 -0 -1 -1 -1 -1 -1 -2 -2 -2 -2 -1 -1 -0 0 0 -0 -0 -1 -1 -1 -1 -1 -0 -0 -0 -1 -2
-0 0 1 1 1 0 0 0 1 1 1 1 1 1 0 0 -0 -0 -1 -1 -1 -1 -1 -2 -2 -2 -2 -1 -1 -0 0 0 -0 -0 -0 -1 -1 -1 -1 -1 -0 -0 -1 -1
-1 -0 1 1 1 1 1 1 1 1 1 1 1 1 1 1 0 0 -0 -1 -1 -1 -2 -2 -2 -2 -1 -1 -1 -1 -1 -1 -1 -1 -1 -1 -1 -1 -1 -1 -0 -0 -1 -1
-2 -1 0 1 1 1 1 1 1 1 1 1 1 1 1 1 2 1 1 0 -0 -1 -2 -3 -2 -2 -2 -2 -2 -2 -2 -2 -2 -1 -1 -1 -1 -1 -1 -1 -1 -1 -1 -1
-1 -0 0 1 1 2 2 2 2 2 2 2 2 2 3 3 3 3 3 2 1 -0 -2 -3 -3 -3 -3 -3 -3 -3 -2 -2 -2 -1 -1 -1 -1 -1 -1 -1 -1 -1 -1 -1
0 1 1 1 2 3 3 3 3 3 3 3 3 3 3 3 3 3 3 3 2 0 -2 -3 -4 -4 -4 -4 -4 -3 -3 -2 -1 -1 -0 -0 0 -0 -0 -0 -0 -0 -1 -1
1 2 2 2 2 3 3 3 3 3 3 3 3 3 4 4 4 4 3 2 1 -1 -3 -4 -4 -4 -5 -4 -4 -3 -3 -2 -1 -1 -0 0 0 0 -0 -0 -0 -0 -0 -1
2 2 3 3 3 3 3 3 3 3 3 3 3 4 4 4 4 3 3 1 -0 -2 -3 -4 -4 -4 -4 -4 -4 -3 -3 -2 -2 -1 -1 -0 0 0 -0 -1 -1 -1 -0 -0
3 3 3 4 3 3 3 3 3 3 4 4 4 4 4 4 3 3 2 -0 -2 -2 -3 -3 -3 -4 -4 -4 -3 -3 -3 -2 -2 -1 -1 -0 0 0 -0 -1 -1 -1 -0 0
3 3 4 4 4 3 3 3 3 3 4 4 4 4 4 3 3 2 1 -1 -2 -3 -3 -3 -3 -3 -4 -4 -4 -3 -3 -3 -2 -2 -2 -1 -0 -0 -1 -1 -1 -1 -0 -0
3 4 4 4 3 3 3 4 4 4 3 3 3 3 3 3 2 2 1 -0 -1 -2 -2 -2 -3 -3 -4 -4 -4 -4 -4 -3 -3 -3 -2 -2 -1 -1 -1 -1 -1 -1 -1 -0
3 4 4 4 3 3 4 4 4 3 3 3 3 3 2 2 2 1 1 0 -1 -1 -1 -2 -2 -2 -3 -3 -3 -4 -4 -4 -4 -3 -3 -3 -2 -1 -1 -1 -1 -1 -1 -1
4 4 4 4 3 3 4 5 4 4 3 3 3 3 2 2 1 1 1 1 -0 -1 -1 -1 -1 -1 -1 -2 -3 -4 -4 -4 -4 -4 -3 -3 -2 -2 -2 -2 -1 -1 -1 -1
3 3 4 3 3 4 5 5 5 4 4 4 4 3 2 2 1 1 1 1 0 -0 -0 -1 -0 -0 -1 -2 -3 -4 -5 -5 -5 -4 -4 -3 -3 -2 -2 -2 -2 -1 -1 -1
3 3 3 3 3 4 5 5 5 5 6 5 5 4 3 2 1 1 1 1 1 1 0 -0 -1 -1 -2 -3 -4 -5 -6 -6 -5 -5 -4 -4 -3 -3 -2 -2 -2 -1 -1 -1
4 4 4 4 4 4 5 6 6 6 6 6 5 4 3 3 2 1 1 1 1 1 0 -0 -1 -2 -3 -4 -5 -5 -6 -6 -6 -5 -5 -4 -4 -3 -3 -2 -2 -1 -1 -1
5 5 5 5 5 5 5 6 6 6 6 5 4 4 4 3 2 2 1 1 0 -0 -0 -0 -1 -2 -3 -3 -4 -5 -6 -6 -6 -6 -5 -5 -4 -3 -3 -3 -2 -1 -1 -1
6 6 6 6 6 5 5 5 6 5 5 4 3 3 3 2 2 1 1 0 -1 -1 -1 -1 -1 -2 -2 -3 -4 -5 -5 -6 -5 -5 -5 -4 -4 -3 -3 -3 -2 -2 -1 -1
7 7 7 6 6 5 5 5 5 4 4 3 2 2 1 1 1 1 0 -1 -1 -1 -1 -1 -1 -2 -2 -3 -4 -5 -5 -5 -5 -5 -4 -3 -3 -3 -3 -3 -2 -2 -1 -1